Showing default

TJS-19, 63924

Orbit data source: Space-Track

TJS-19, 63924 is a payload satellite owned by SAST (CN) in GEO that was launched on Mon, 12 May 2025 UTC via a CHANG ZHENG 3C launch vehicle from the Xichang Space Center, China (XSC). Payload-class satellites include a variety of spacecraft equipped with specific instruments for various scientific and technological missions. These include communications satellites like Starlink; space stations such as the ISS; scientific satellites like the Hubble; Earth observation satellites from companies like Planet Labs, Umbra, and HawkEye 360; GPS; miniature CubeSats for education and research; and military/defense satellites.

Not visible in the next 10 days
Identifier
63924, 2025-097A
Orbit
GEO
Country
Flag of CNCN / PRC
Related business
Manufacturer
SAST
Mission
Operational Defense Technology
Bus & Motor
FY-4?, LAE
Mass
~3,000 kg wet, ~2,500 kg dry
Launch date (UTC)
2025-05-12 (1 year ago)
Launch vehicle
CHANG ZHENG 3C
Launch site
Xichang Space Center, China (XSC)
Object type
Payload
Rocket body
Debris
Shape & HBR
Box + 2 Pan, 15.0 m
Radar Cross Section
34.063 m², Large (>1 m²)

Expand to show TLE details & history
Last TLE update: 23 hours ago

TLE from 23 hours ago
0 TJS-19
1 63924U 25097A   26201.74729262 -.00000274  00000-0  00000+0 0  9990
2 63924   3.2310 317.9999 0004136 249.9755 140.7947  1.00274497  4489
Epoch: 2026-07-20T17:56Z
TLE epoch observation values (Epoch: 2026-07-20T17:56:06.082Z)
Latitude
1.64189°
Longitude
141.21814°
Altitude
35,798.594 km
Speed
3.074 km/s
True Right ascension
23h 15m 04s
True Declination
1° 38' 25"
Sunlit
Object was in daylight at epoch
Visualization orbit readout
Latitude
Unknown
Longitude
Unknown
Altitude
Unknown
Speed
Unknown
Apparent Right ascension
Unknown
Apparent Declination
Unknown
Sunlit
N/A
Visualization observer readout
Local Sidereal Time
06:15:47
Azimuth
Unknown
Elevation
Unknown
Doppler factor
Unknown
Orbital elements
Apogee altitude
35,804.34 km
Perigee altitude
35,769.461 km
Semi-major axis
42,165.037 km
Eccentricity
0.00041
Inclination
3.231°
RAAN
317.9999°
Arg. of periapsis
249.9755°
True anomaly
140.82465°
Mean anomaly
140.7947°
Eccentric anomaly
140.80967°
Mean motion
0.25068 °/min
Orbital period
1,436.11 mins
BSTAR
0
Loading maneuver chart data...
Computing Atmospheric mass density...
Loading historical data...
Loading historical data...
Loading historical data...
Loading historical data...
Loading historical data...
Loading historical data...
Loading historical data...
Other satellites on launch #97 in the year 2025 (2025-05-12 UTC)

Documentation

Showing up to 5 results
|